sat.trackr.live / text

‹ back to catalog

STARLINK-34395

NORAD 64668 · 2025-139E

PAYLOAD ACTIVE UNKNOWN

§ Identity

Operator
Country
US
Launch date
2025-06-28
Launch site
AFETR
Launch vehicle
Mass (kg)
RCS (m²)

Purposes: comms

External: N2YO · Heavens-Above · Gunter

§ Orbital elements

Epoch: 2026-09-20T09:30:53.537472Z

Period
93.85 min
Inclination
53.1596°
Eccentricity
0.0001014
Mean motion
15.34404889 rev/d
Perigee alt
462.0 km
Apogee alt
463.4 km
Semi-major
6,840.8 km
B*
3.1095e-4
RAAN
298.4614°
Arg perigee
78.8201°
Mean anomaly
281.2916°
Rev number
7,015

§ Raw data

STARLINK-343951 64668U 25139E   26263.39645298  .00010146  00000+0  31095-3 0  99972 64668  53.1596 298.4614 0001014  78.8201 281.2916 15.34404889 70155

JSON: /api/v1/satellites/64668 · /tle

For live sub-satellite position, see the globe view (requires WebGL).

§ Visibility from observer

Set your observer location to see the next 7 days of passes ≥ 10°. The values pass through the URL so the page stays shareable.

No JS? Fill the form by hand. The geolocation button needs JavaScript.